Flag for U.S.A. Weather past 2 weeks in Victoria, Texas, U.S.A.

Now
77 °F

Clear.


Feels Like: 78 °F
Forecast: 73 / 90 °F
Wind: 6 mph from Southeast

Location: Victoria Regional Airport

Current Time: Sep 3, 2015 at 11:33:39 PM

Latest Report: Sep 3, 2015 at 10:51 PM


Visibility: 9 mi

Pressure: 29.88 "Hg

Humidity: 96%

Dew point: 76 °F

Location of VictoriaLocation

Historic Weather in Victoria — Graph

°F

Victoria temperature yesterday

Maximum temperature yesterday: 90 °F (at 2:51 PM)
Minimum temperature yesterday: 72 °F (at 4:51 AM)
Average temperature yesterday: 79 °F

Past Weeks' High & Low Weather Summary

 TemperatureHumidityPressure
High97 °F (Aug 24, 4:51 PM)100% (Aug 20, 2:58 AM)30.12 "Hg (Aug 20, 2:58 AM)
Low65 °F (Aug 27, 6:51 AM)34% (Aug 27, 2:51 PM)29.83 "Hg (Aug 19, 9:51 PM)
Average80 °F81%29.98 "Hg
* Reported Aug 19 9:51 PM — Sep 3 9:51 PM, Victoria, Weather by CustomWeather, © 2015

Note: Actual official high and low records may vary slightly from our data, if they occured in-between our weather recording intervals... More about our weather records

Advertising

Victoria weather history for previous 24 hours

 ConditionsComfort  
Time TempWeatherWind HumidityBarometerVisibility
9:51 PM
Thu, Sep 3
77 °FClear.5 mph96%29.87 "Hg10 mi
8:51 PM79 °FClear.7 mph90%29.84 "Hg10 mi
7:51 PM81 °FSunny.10 mph88%29.83 "Hg10 mi
6:51 PM84 °FSunny.9 mph74%29.84 "Hg10 mi
5:51 PM86 °FPassing clouds.13 mph72%29.83 "Hg10 mi
4:51 PM85 °FSunny.5 mph75%29.85 "Hg10 mi
3:51 PM77 °FRain. Fog.6 mph94%29.88 "Hg3 mi
2:51 PM83 °FLight rain. Overcast.9 mph82%29.90 "Hg7 mi
1:51 PM84 °FMore clouds than sun.6 mph77%29.91 "Hg10 mi
12:51 PM84 °FOvercast.3 mph72%29.93 "Hg10 mi
11:51 AM87 °FPartly sunny.No wind65%29.94 "Hg10 mi
10:51 AM82 °FBroken clouds.No wind82%29.95 "Hg10 mi
9:51 AM81 °FWarm.3 mph88%29.95 "Hg10 mi
8:51 AM76 °FBroken clouds.5 mph100%29.94 "Hg7 mi
8:03 AM73 °FFog.3 mph100%29.94 "Hg6 mi
7:51 AM73 °FFog.6 mph100%29.93 "Hg6 mi
6:51 AM73 °FFog.7 mph100%29.92 "Hg6 mi
5:51 AM73 °FClear.6 mph100%29.91 "Hg7 mi
4:51 AM73 °FClear.5 mph100%29.91 "Hg8 mi
3:51 AM73 °FFog.3 mph100%29.92 "Hg6 mi
2:59 AM72 °FFog.5 mph100%29.92 "Hg5 mi
1:51 AM74 °FClear.5 mph100%29.92 "Hg8 mi
12:51 AM76 °FPassing clouds.5 mph97%29.93 "Hg9 mi
11:51 PM
Wed, Sep 2
75 °FClear.No wind100%29.93 "Hg8 mi
Weather by CustomWeather, © 2015

See weather overviewHow to use our weather pages